Back to catalog

TRANSIT 14 DEB

LostPO
NORAD 26817·DEBRIS·🇺🇸 United States

Launched Aug 18, 1966 from Vandenberg Space Force Base

Loading…

Next Passes (next 24 hours)

TLE

StaleSource: Space-Track

Epoch: Jan 30, 2025, 10:02 UTC

1 26817U 66076H   25030.41825123  .00001424  00000-0  16482-2 0  9999
2 26817  88.8255  88.8799 0039380 126.0676 234.4143 13.68143369232048

Track TRANSIT 14 DEB in real time with AllMySat

Download on the App Store